Regional Weather Roundup
Issued by NWS Kansas City/Pleasant Hill, MO

Home | Current Version | Previous Version | Graphics & Text | Print | Product List | Glossary Off
Versions: 1 2 3 4 5 6 7 8 9 10 11 12 13 14 15 16 17 18 19 20 21 22 23 24 25 26 27 28

000
ASUS43 KEAX 231710
RWREAX

WEATHER ROUNDUP FOR EASTERN KANSAS AND NORTHWEST MISSOURI
NATIONAL WEATHER SERVICE KANSAS CITY/PLEASANT HILL MO
1200 PM CDT MON OCT 23 2017

KSZ040-057-103>105-MOZ028-029-037-043-231800-
...KANSAS CITY METROPOLITAN AREA...

CITY           SKY/WX    TMP DP  RH WIND       PRES   REMARKS
K.C. INTL      PTSUNNY   65  43  44 N20G28    29.97R
K.C. DOWNTOWN  PTSUNNY   63  43  48 N12G20    29.96R
LEES SUMMIT    CLOUDY    62  42  47 N18G30    29.95S
OLATHE - IXD   MOSUNNY   62  42  47 N18       29.99R
OLATHE - OJC   MOSUNNY   61  40  45 N14G26    29.98R
LAWRENCE       MOSUNNY   66  43  43 NW20G26   29.99R

$$

MOZ001>008-011>017-020>025-030>033-038>040-044>046-053-054-231800-
...NORTHERN AND CENTRAL MISSOURI...

CITY           SKY/WX    TMP DP  RH WIND       PRES   REMARKS
ST. JOSEPH     LGT RAIN  64  42  44 N14G25    29.97R
MOSBY          MOSUNNY   64  39  39 NW14G20   29.95R
WARRENSBURG    PTSUNNY   61  41  48 NW12G22   29.93R
WHITEMAN AFB   PTSUNNY   62  44  53 W13       29.87S
CLINTON        MOSUNNY   63  45  51 NW15G22   29.93S
SEDALIA        SUNNY     61  46  57 W15G21    29.91F
WARSAW         NOT AVBL
CHILLICOTHE      N/A     64  44  48 N8G17     29.91F
KIRKSVILLE     MOSUNNY   60  47  61 W13G20    29.87F

$$

MOZ041-047>049-056>058-063>065-088>090-097-231800-
...EASTERN AND SOUTHERN MISSOURI...

CITY           SKY/WX    TMP DP  RH WIND       PRES   REMARKS
ST. LOUIS INTL CLOUDY    60  45  57 W9        29.88F
SPIRIT OF STL  CLOUDY    60  48  64 VRB5      29.88F
COLUMBIA       SUNNY     65  47  52 SW14      29.89F
ROLLA          SUNNY     64  44  48 SW13      29.91F
OSAGE BEACH    SUNNY     65  44  46 W12G17    29.91F
SPRINGFIELD    SUNNY     66  43  43 SW16G25   29.95F
BRANSON        PTSUNNY   64  39  39 W16G23    30.00F
JOPLIN         CLOUDY    64  46  52 W15G22    29.99S
WEST PLAINS    SUNNY     65  42  43 W10G20    29.97F

$$

IAZ060-094-KSZ022-034>040-054-083-096-NEZ052-066-093-231800-
...KANSAS...SOUTHEAST NEBRASKA AND IOWA...

CITY           SKY/WX    TMP DP  RH WIND       PRES   REMARKS
TOPEKA         PTSUNNY   64  43  46 NW20G28   30.02R
MANHATTAN      CLOUDY    67  41  38 NW12G23   30.06R
EMPORIA        CLOUDY    64  41  42 N16G24    30.05R
CHANUTE        MOSUNNY   64  43  46 N20G30    30.02R
WICHITA        MOSUNNY   67  40  37 N18G29    30.10R
OMAHA          PTSUNNY   60  38  43 NW25G38   30.00R
LINCOLN        CLOUDY    61  35  37 NW23G37   30.07R
FALLS CITY     PTSUNNY   62  41  46 NW13G22   29.98R
LAMONI         CLOUDY    63  43  48 N21G28    29.91R
DES MOINES     CLOUDY    62  42  47 NW10      29.88R

$$





USA.gov is the U.S. government's official web portal to all federal, state and local government web resources and services.